Tracking 30995 objects as of 5-Jul-2025
HD Live streaming from Space Station
objects crossing your sky now

NOAA 16 DEB

Track NOAA 16 DEB now!
10-day predictions


NORAD ID: 41416
Int'l Code: 2000-055KV
Perigee: 757.9 km
Apogee: 800.1 km
Inclination: 98.8 °
Period: 100.3 minutes
Semi major axis: 7149 km
RCS: Unknown
Launch date: September 21, 2000
Source: United States (US)
Launch site: AIR FORCE WESTERN TEST RANGE (AFWTR)

Note: This is SATELLITE DEBRIS
Your satellite tracking list
Your tracking list is empty




NASA's NSSDC Master Catalog

Two Line Element Set (TLE):
1 41416U 00055KV  25185.51271890  .00004592  00000-0  15885-2 0  9999
2 41416  98.7666 288.7659 0029462  54.4970 305.8957 14.35969094484842
Source of the keplerian elements: AFSPC